DL2DHM-13 Weather Reports


time (UTC)temp
C
wind
direction
speed
KPH
gust
KPH
rain 1hr
cm
rain 24hr
cm
rain mn
cm
humidity
%
barometer
mb
20260902185043 17 205 6.4 14.5 0.00 0.03 0.03 75 1018.4
20260902184544 17 261 3.2 11.3 0.00 0.03 0.03 76 1018.2
20260902184043 17 237 3.2 6.4 0.00 0.03 0.03 76 1018.2
20260902183543 17 236 1.6 6.4 0.00 0.03 0.03 75 1018.1
20260902183043 17 228 1.6 6.4 0.00 0.03 0.03 75 1018.1
20260902182542 17 227 1.6 4.8 0.00 0.03 0.03 75 1018.1
20260902182047 17 227 1.6 4.8 0.00 0.03 0.03 75 1018.0
20260902181543 17 227 3.2 6.4 0.00 0.03 0.03 74 1018.0
20260902181042 17 225 3.2 6.4 0.00 0.03 0.03 74 1017.9
20260902180542 17 225 3.2 6.4 0.00 0.03 0.03 74 1017.8
20260902180041 17 229 1.6 8.0 0.00 0.03 0.03 74 1017.8
20260902175541 18 229 1.6 8.0 0.00 0.03 0.03 74 1017.8
20260902175041 18 241 1.6 4.8 0.00 0.03 0.03 74 1017.7
20260902174541 18 241 1.6 4.8 0.00 0.03 0.03 73 1017.7
20260902174041 18 241 1.6 4.8 0.00 0.03 0.03 73 1017.7
20260902173541 18 241 1.6 4.8 0.00 0.03 0.03 73 1017.7
20260902173044 18 241 1.6 4.8 0.00 0.03 0.03 71 1017.7
20260902172540 18 241 1.6 4.8 0.00 0.03 0.03 71 1017.6
20260902172044 18 242 1.6 8.0 0.00 0.03 0.03 71 1017.7
20260902171540 18 242 1.6 8.0 0.00 0.03 0.03 70 1017.7
20260902171040 18 234 1.6 8.0 0.00 0.03 0.03 70 1017.7
20260902170540 18 236 3.2 11.3 0.00 0.03 0.03 69 1017.7
20260902170039 18 272 3.2 12.9 0.00 0.03 0.03 69 1017.8
20260902165540 18 230 3.2 12.9 0.00 0.03 0.03 68 1017.7
20260902165039 18 288 4.8 11.3 0.00 0.03 0.03 68 1017.7
20260902164539 19 296 3.2 11.3 0.00 0.03 0.03 68 1017.7
20260902164038 19 319 1.6 14.5 0.00 0.03 0.03 67 1017.6
20260902163539 19 223 4.8 14.5 0.00 0.03 0.03 66 1017.6
20260902163042 20 249 3.2 8.0 0.00 0.03 0.03 65 1017.7
20260902162537 20 269 1.6 11.3 0.00 0.03 0.03 64 1017.6
20260902162038 20 258 3.2 12.9 0.00 0.03 0.03 63 1017.6
20260902161541 20 258 4.8 12.9 0.00 0.03 0.03 62 1017.6
20260902161037 20 227 1.6 14.5 0.00 0.03 0.03 62 1017.6
20260902160638 20 256 6.4 14.5 0.00 0.03 0.03 62 1017.6
20260902160035 20 240 4.8 12.9 0.00 0.03 0.03 61 1017.5
20260902155535 20 234 3.2 8.0 0.00 0.03 0.03 61 1017.5
20260902155037 20 219 1.6 8.0 0.00 0.03 0.03 63 1017.5
20260902154534 20 232 3.2 11.3 0.00 0.03 0.03 61 1017.5
20260902154032 20 225 3.2 11.3 0.00 0.03 0.03 59 1017.5
20260902153532 20 251 1.6 9.7 0.00 0.03 0.03 60 1017.6
20260902153031 20 215 3.2 9.7 0.00 0.03 0.03 60 1017.7
20260902152530 20 216 1.6 9.7 0.00 0.03 0.03 57 1017.7
20260902152030 21 239 1.6 11.3 0.00 0.03 0.03 56 1017.7
20260902151531 21 263 3.2 14.5 0.00 0.03 0.03 57 1017.8
20260902151030 21 205 4.8 14.5 0.00 0.03 0.03 56 1017.8
20260902150529 21 286 3.2 17.7 0.00 0.03 0.03 56 1017.8
20260902150031 21 223 3.2 19.3 0.00 0.03 0.03 57 1017.8
20260902145630 21 209 6.4 19.3 0.00 0.03 0.03 56 1017.8
20260902145028 21 112 4.8 14.5 0.00 0.03 0.03 58 1017.8
20260902144527 21 182 6.4 12.9 0.00 0.03 0.03 58 1017.8
20260902144027 21 212 6.4 17.7 0.00 0.03 0.03 56 1017.9
20260902143527 21 246 3.2 17.7 0.00 0.03 0.03 59 1017.8
20260902143025 21 246 1.6 14.5 0.00 0.03 0.03 59 1017.8
20260902142525 21 287 4.8 14.5 0.00 0.03 0.03 56 1017.9
20260902142025 21 221 4.8 14.5 0.00 0.03 0.03 56 1017.9
20260902141535 21 216 4.8 16.1 0.00 0.03 0.03 59 1018.0
20260902141025 21 171 6.4 16.1 0.00 0.03 0.03 59 1018.0
20260902140523 21 302 4.8 16.1 0.00 0.03 0.03 57 1018.0
20260902140023 21 257 3.2 19.3 0.00 0.03 0.03 60 1018.0
20260902135523 21 234 3.2 12.9 0.00 0.03 0.03 61 1018.1
20260902135022 21 313 1.6 8.0 0.00 0.03 0.03 65 1018.0
20260902134623 21 325 1.6 6.4 0.00 0.03 0.03 63 1018.0
20260902134020 20 355 0.0 4.8 0.00 0.03 0.03 69 1018.0
20260902133520 19 333 1.6 6.4 0.00 0.03 0.03 68 1018.0
20260902133020 19 318 1.6 6.4 0.00 0.03 0.03 69 1018.1
20260902132522 20 348 0.0 8.0 0.00 0.03 0.03 68 1018.1
20260902132019 20 280 1.6 16.1 0.00 0.03 0.03 67 1018.1
20260902131519 20 196 9.7 16.1 0.00 0.03 0.03 64 1017.9
20260902131019 21 225 1.6 12.9 0.00 0.03 0.03 64 1018.0
20260902130522 21 252 6.4 14.5 0.00 0.03 0.03 61 1017.9
20260902130018 21 298 1.6 16.1 0.00 0.03 0.03 64 1018.1
20260902125517 21 209 4.8 16.1 0.00 0.81 0.03 63 1018.1
20260902125020 21 219 8.0 16.1 0.00 0.81 0.03 62 1018.2
20260902124517 21 265 6.4 16.1 0.00 0.81 0.03 61 1018.2
20260902124018 21 246 4.8 12.9 0.00 0.81 0.03 62 1018.2
20260902123516 21 32 3.2 9.7 0.00 0.81 0.03 60 1018.1
20260902123020 21 321 1.6 12.9 0.00 0.81 0.03 64 1018.1
20260902122518 21 310 3.2 12.9 0.00 0.81 0.03 63 1018.1
20260902122014 21 163 3.2 9.7 0.00 0.81 0.03 62 1018.1
20260902121515 21 270 3.2 12.9 0.00 0.81 0.03 66 1018.1
20260902121012 20 5 3.2 12.9 0.00 0.81 0.03 65 1018.1
20260902120511 20 242 1.6 11.3 0.00 0.81 0.03 69 1018.1
20260902120011 20 234 3.2 9.7 0.00 0.81 0.03 66 1018.1
20260902115514 20 224 1.6 9.7 0.00 0.81 0.03 69 1018.2
20260902115012 20 220 1.6 9.7 0.00 0.81 0.03 68 1018.4
20260902114511 20 279 1.6 12.9 0.00 0.81 0.03 68 1018.3
20260902114011 20 343 4.8 12.9 0.00 0.81 0.03 70 1018.4
20260902113507 20 216 1.6 8.0 0.00 0.81 0.03 72 1018.5
20260902113005 20 275 1.6 11.3 0.00 0.81 0.03 71 1018.5
20260902112504 19 229 1.6 12.9 0.00 0.81 0.03 72 1018.5
20260902112004 18 277 3.2 12.9 0.00 0.81 0.03 71 1018.6
20260902111504 19 219 3.2 11.3 0.00 0.81 0.03 70 1018.6
20260902111003 18 38 0.0 11.3 0.00 0.81 0.03 74 1018.5
20260902110503 18 205 3.2 11.3 0.00 0.81 0.03 71 1018.5
20260902110008 19 105 0.0 4.8 0.00 0.81 0.03 72 1018.5
20260902105504 19 205 0.0 11.3 0.00 0.81 0.03 70 1018.5
20260902105002 19 333 1.6 11.3 0.00 0.81 0.03 69 1018.5
20260902104508 20 298 3.2 11.3 0.00 0.81 0.03 71 1018.5
20260902104001 19 209 3.2 12.9 0.00 0.81 0.03 69 1018.6
20260902103600 19 295 4.8 12.9 0.00 0.81 0.03 71 1018.6
20260902103059 18 197 3.2 6.4 0.00 0.81 0.03 76 1018.5
20260902102559 18 324 1.6 6.4 0.00 0.81 0.03 73 1018.6
20260902102103 19 281 1.6 8.0 0.00 0.81 0.03 75 1018.6
20260902101601 18 242 3.2 11.3 0.00 0.81 0.03 72 1018.7
20260902101057 18 269 3.2 11.3 0.00 0.81 0.03 73 1018.7
20260902100557 19 246 3.2 6.4 0.00 0.81 0.03 75 1018.6
20260902100123 19 252 1.6 6.4 0.00 0.81 0.03 77 1018.7
20260902095600 18 341 1.6 6.4 0.00 0.81 0.03 74 1018.7
20260902095059 18 271 3.2 6.4 0.00 0.81 0.03 74 1018.7
20260902094554 18 19 3.2 8.0 0.00 0.81 0.03 80 1018.7
20260902094053 18 213 3.2 8.0 0.00 0.81 0.03 78 1018.7
20260902093553 18 11 1.6 6.4 0.00 0.81 0.03 80 1018.8
20260902093100 17 238 1.6 11.3 0.00 0.81 0.03 80 1018.8
20260902092550 17 213 0.0 11.3 0.00 0.81 0.03 81 1018.8
20260902092050 17 246 1.6 8.0 0.00 0.81 0.03 82 1018.8
20260902091551 17 227 0.0 8.0 0.00 0.81 0.03 84 1018.7
20260902091049 17 242 0.0 4.8 0.00 0.81 0.03 83 1018.7
20260902090549 17 241 0.0 4.8 0.00 0.81 0.03 85 1018.7
20260902090048 17 197 0.0 4.8 0.00 0.81 0.03 87 1018.7
20260902085548 17 194 1.6 4.8 0.00 0.81 0.03 89 1018.7
20260902085045 16 115 0.0 3.2 0.00 0.81 0.03 91 1018.7
20260902084544 16 113 0.0 3.2 0.00 0.81 0.03 93 1018.7
20260902084042 15 113 0.0 3.2 0.00 0.81 0.03 93 1018.8
20260902083540 15 113 0.0 4.8 0.00 0.81 0.03 93 1018.8
20260902083046 15 115 0.0 3.2 0.00 0.81 0.03 93 1018.8
20260902082537 15 115 0.0 3.2 0.00 0.81 0.03 93 1018.7
20260902082037 14 91 0.0 4.8 0.00 0.81 0.03 94 1018.7
20260902081553 14 91 0.0 4.8 0.00 0.81 0.03 94 1018.7
20260902081035 14 91 1.6 4.8 0.00 0.81 0.03 94 1018.6
20260902080536 14 91 1.6 4.8 0.00 0.81 0.03 94 1018.6
20260902080036 14 92 1.6 4.8 0.00 0.81 0.03 94 1018.6
20260902075532 13 94 0.0 3.2 0.00 0.81 0.03 94 1018.6
20260902075033 13 94 0.0 6.4 0.00 0.81 0.03 94 1018.5
20260902074532 13 94 0.0 6.4 0.00 0.81 0.03 94 1018.5
20260902074031 13 115 0.0 4.8 0.00 0.81 0.03 94 1018.3
20260902073533 13 115 0.0 4.8 0.00 0.81 0.03 94 1018.3
20260902073030 13 117 1.6 4.8 0.00 0.81 0.03 94 1018.4
20260902072529 13 117 0.0 3.2 0.00 0.81 0.03 94 1018.4
20260902072029 13 117 0.0 3.2 0.00 0.81 0.03 94 1018.4
20260902071535 13 117 1.6 6.4 0.00 0.81 0.03 94 1018.4
20260902071028 13 117 0.0 6.4 0.00 0.81 0.03 94 1018.3
20260902070529 13 118 1.6 4.8 0.00 0.81 0.03 94 1018.4
20260902070033 13 115 1.6 4.8 0.00 0.81 0.03 94 1018.4
20260902065528 13 109 1.6 4.8 0.00 0.81 0.03 94 1018.4
20260902065026 13 110 0.0 4.8 0.00 0.81 0.03 94 1018.4
20260902064526 13 110 1.6 4.8 0.00 0.81 0.03 94 1018.3
20260902064027 12 110 1.6 6.4 0.00 0.81 0.03 94 1018.4
20260902063524 12 111 1.6 6.4 0.00 0.81 0.03 94 1018.4
20260902063023 12 115 0.0 3.2 0.00 0.81 0.03 94 1018.4
20260902062521 12 115 0.0 3.2 0.00 0.81 0.03 94 1018.3
20260902062020 12 115 0.0 3.2 0.00 0.81 0.03 94 1018.4
20260902061520 12 115 0.0 3.2 0.00 0.81 0.03 94 1018.3
20260902061029 12 115 0.0 1.6 0.00 0.81 0.03 94 1018.3
20260902060518 12 117 0.0 3.2 0.00 0.81 0.03 94 1018.3
20260902060016 12 117 0.0 4.8 0.00 0.81 0.03 94 1018.3
20260902055515 12 117 0.0 4.8 0.00 0.81 0.03 94 1018.2
20260902055015 12 117 0.0 3.2 0.00 0.81 0.03 94 1018.3
20260902054514 12 117 0.0 4.8 0.00 0.81 0.03 94 1018.3
20260902054013 12 117 0.0 4.8 0.00 0.81 0.03 94 1018.3
20260902053513 12 110 0.0 4.8 0.00 0.81 0.03 94 1018.3
20260902053014 12 110 0.0 3.2 0.00 0.81 0.03 94 1018.2
20260902052512 12 110 0.0 4.8 0.00 0.81 0.03 94 1018.3
20260902052011 12 111 0.0 4.8 0.00 0.81 0.03 94 1018.3
20260902051510 12 110 0.0 3.2 0.00 0.81 0.03 94 1018.3
20260902051013 12 110 0.0 6.4 0.00 0.81 0.03 94 1018.2
20260902050511 12 110 1.6 6.4 0.00 0.81 0.03 94 1018.2
20260902050011 12 108 0.0 4.8 0.00 0.81 0.03 94 1018.3
20260902045510 12 109 1.6 4.8 0.00 0.81 0.03 94 1018.3
20260902045009 12 99 0.0 4.8 0.00 0.81 0.03 94 1018.3
20260902044522 12 99 0.0 4.8 0.00 0.81 0.03 94 1018.3
20260902044009 12 99 0.0 4.8 0.00 0.81 0.03 94 1018.3
20260902043508 12 101 0.0 0.0 0.00 0.81 0.03 94 1018.4
20260902043006 12 101 0.0 0.0 0.00 0.81 0.03 94 1018.4
20260902042506 12 101 0.0 1.6 0.00 0.81 0.03 94 1018.4
20260902042005 12 101 0.0 1.6 0.00 0.81 0.03 94 1018.4
20260902041505 12 101 0.0 1.6 0.00 0.81 0.03 94 1018.4
20260902041007 12 101 0.0 1.6 0.00 0.81 0.03 94 1018.3
20260902040506 12 101 0.0 3.2 0.00 0.81 0.03 94 1018.3
20260902040004 12 101 0.0 6.4 0.00 0.81 0.03 94 1018.2
20260902035503 12 101 3.2 6.4 0.00 0.81 0.03 94 1018.3
20260902035003 12 126 1.6 6.4 0.00 0.81 0.03 94 1018.3
20260902034503 11 128 1.6 4.8 0.00 0.81 0.03 94 1018.3
20260902034002 11 128 1.6 6.4 0.00 0.81 0.03 94 1018.3
20260902033503 11 128 1.6 6.4 0.00 0.81 0.03 94 1018.5
20260902033001 11 132 0.0 6.4 0.00 0.81 0.03 94 1018.5
20260902032601 11 133 1.6 4.8 0.00 0.81 0.03 94 1018.5
20260902032100 11 148 1.6 4.8 0.00 0.81 0.03 94 1018.4
20260902031601 11 156 0.0 4.8 0.00 0.81 0.03 94 1018.5
20260902031100 11 156 0.0 3.2 0.00 0.81 0.03 94 1018.5
20260902030559 11 156 0.0 3.2 0.00 0.81 0.03 94 1018.6
20260902030059 11 156 0.0 3.2 0.00 0.81 0.03 94 1018.6
20260902025558 11 156 0.0 3.2 0.00 0.81 0.03 94 1018.6
20260902025100 11 156 0.0 1.6 0.00 0.81 0.03 94 1018.5
20260902024608 10 156 0.0 3.2 0.00 0.81 0.03 94 1018.6
20260902024057 10 156 0.0 3.2 0.00 0.81 0.03 94 1018.5
20260902023600 10 156 0.0 1.6 0.00 0.81 0.03 94 1018.6
20260902023059 10 156 0.0 1.6 0.00 0.81 0.03 94 1018.6
20260902022604 10 156 0.0 1.6 0.00 0.81 0.03 94 1018.6
20260902022057 10 156 0.0 0.0 0.00 0.81 0.03 94 1018.8
20260902021556 10 156 0.0 0.0 0.00 0.81 0.03 94 1018.7
20260902021056 10 156 0.0 0.0 0.00 0.81 0.03 94 1018.6
20260902020556 10 156 0.0 0.0 0.00 0.81 0.03 94 1018.7
20260902020116 10 156 0.0 0.0 0.00 0.81 0.03 94 1018.7
20260902015556 11 156 0.0 1.6 0.00 0.81 0.03 94 1018.8
20260902015056 11 156 0.0 1.6 0.00 0.81 0.03 94 1018.8
20260902014601 11 156 0.0 1.6 0.00 0.81 0.03 94 1018.8
20260902014055 11 156 0.0 1.6 0.00 0.81 0.03 94 1018.8
20260902013555 11 157 0.0 0.0 0.00 0.81 0.03 94 1018.8
20260902013055 10 157 0.0 0.0 0.00 0.81 0.03 94 1018.9
20260902012554 11 157 0.0 0.0 0.00 0.81 0.03 94 1018.9
20260902012100 10 157 0.0 0.0 0.00 0.81 0.03 94 1018.8
20260902011554 10 157 0.0 1.6 0.00 0.81 0.03 94 1018.9
20260902011055 10 157 0.0 4.8 0.00 0.81 0.03 94 1018.8
20260902010555 10 157 0.0 4.8 0.00 0.81 0.03 94 1018.6
20260902010054 10 157 0.0 4.8 0.00 0.81 0.03 94 1018.6
20260902005558 10 236 0.0 1.6 0.00 0.81 0.03 94 1018.6
20260902005054 10 236 0.0 3.2 0.00 0.81 0.03 94 1018.6
20260902004554 10 236 0.0 3.2 0.00 0.81 0.03 94 1018.5
20260902004053 10 238 0.0 1.6 0.00 0.81 0.03 94 1018.6
20260902003553 10 238 0.0 0.0 0.00 0.81 0.03 94 1018.7
20260902003059 10 238 0.0 0.0 0.00 0.81 0.03 94 1018.6
20260902002551 10 238 0.0 0.0 0.00 0.81 0.03 93 1018.6
20260902002051 10 238 0.0 0.0 0.00 0.81 0.03 93 1018.6
20260902001551 10 238 0.0 0.0 0.00 0.81 0.03 93 1018.7
20260902001051 10 238 0.0 0.0 0.00 0.81 0.03 93 1018.7
20260902000549 10 238 0.0 0.0 0.00 0.81 0.03 93 1018.7
20260902000050 10 238 0.0 0.0 0.00 0.81 0.03 93 1018.7
20260901235550 10 238 0.0 0.0 0.00 0.91 0.03 93 1018.8
20260901235047 10 238 0.0 0.0 0.00 0.91 0.03 93 1018.8
20260901234602 10 238 0.0 0.0 0.00 0.91 0.03 93 1019.0
20260901234046 10 238 0.0 0.0 0.00 0.91 0.03 93 1019.0
20260901233546 10 238 0.0 0.0 0.00 0.91 0.03 93 1019.0
20260901233052 10 238 0.0 0.0 0.00 0.91 0.03 93 1019.0
20260901232544 10 238 0.0 0.0 0.00 0.91 0.03 93 1019.1
20260901232047 10 238 0.0 0.0 0.00 0.91 0.03 93 1019.1
20260901231544 11 238 0.0 0.0 0.00 0.91 0.03 93 1019.1
20260901231043 11 238 0.0 0.0 0.00 0.91 0.03 93 1019.2
20260901230543 11 238 0.0 0.0 0.03 0.91 0.03 93 1019.2
20260901230049 11 238 0.0 0.0 0.03 0.91 0.03 93 1019.2
20260901225542 11 238 0.0 0.0 0.03 0.91 0.03 93 1019.2
20260901225042 11 238 0.0 0.0 0.03 0.91 0.03 93 1019.2
20260901224545 11 238 0.0 0.0 0.03 0.91 0.03 93 1019.2
20260901224042 11 238 0.0 0.0 0.03 0.91 0.03 93 1019.2
20260901223540 11 238 0.0 0.0 0.03 0.91 0.03 93 1019.2
20260901223038 11 238 0.0 0.0 0.03 0.91 0.03 93 1019.2
20260901222539 11 238 0.0 0.0 0.03 0.91 0.03 93 1019.2
20260901222037 11 238 0.0 0.0 0.03 0.91 0.03 93 1019.1
20260901221602 11 238 0.0 0.0 0.03 0.91 0.03 93 1019.2
20260901221036 11 238 0.0 0.0 0.03 0.91 0.03 93 1019.1
20260901220536 11 238 0.0 0.0 0.00 0.89 0.00 93 1019.1
20260901220035 11 238 0.0 0.0 0.00 0.89 0.00 93 1019.1
20260901215534 11 238 0.0 1.6 0.00 0.89 0.89 93 1019.1
20260901215034 11 238 0.0 1.6 0.00 0.89 0.89 93 1019.1
20260901214533 12 238 0.0 0.0 0.00 0.89 0.89 93 1019.0
20260901214033 12 238 0.0 0.0 0.00 0.89 0.89 93 1019.1
20260901213531 12 238 0.0 0.0 0.00 0.89 0.89 93 1019.0
20260901213029 12 238 0.0 0.0 0.00 0.89 0.89 93 1019.0
20260901212529 12 238 0.0 0.0 0.00 0.89 0.89 93 1018.9
20260901212031 12 238 0.0 0.0 0.00 0.89 0.89 93 1018.9
20260901211534 12 238 0.0 1.6 0.00 0.89 0.89 93 1018.8
20260901211031 12 238 0.0 3.2 0.00 0.89 0.89 93 1018.8
20260901210526 12 238 0.0 0.0 0.00 0.89 0.89 93 1018.8
20260901210026 12 238 0.0 0.0 0.00 0.89 0.89 93 1018.8
20260901205526 13 238 0.0 0.0 0.00 0.94 0.89 93 1018.8
20260901205024 13 238 0.0 0.0 0.00 0.94 0.89 93 1018.8
20260901204532 13 238 0.0 0.0 0.00 0.94 0.89 93 1018.9
20260901204022 13 238 0.0 0.0 0.00 0.94 0.89 93 1018.8
20260901203522 13 238 0.0 0.0 0.00 0.94 0.89 93 1018.8
20260901203040 13 238 0.0 0.0 0.00 0.94 0.89 93 1018.7
20260901202522 13 238 0.0 1.6 0.00 0.94 0.89 93 1018.8
20260901202030 13 238 0.0 3.2 0.00 0.94 0.89 93 1018.8
20260901201534 13 238 0.0 3.2 0.00 0.94 0.89 93 1018.7
20260901201021 13 238 0.0 0.0 0.00 0.94 0.89 92 1018.8
20260901200519 13 238 0.0 0.0 0.00 0.94 0.89 92 1018.7
20260901200020 13 238 0.0 0.0 0.00 0.94 0.89 92 1018.8
20260901195518 13 238 0.0 0.0 0.00 0.94 0.89 92 1018.8
20260901195016 13 238 0.0 0.0 0.00 0.94 0.89 92 1018.8
20260901194516 13 238 0.0 1.6 0.00 0.94 0.89 92 1018.8
20260901194018 13 238 0.0 1.6 0.00 0.94 0.89 92 1018.8
20260901193515 13 238 0.0 1.6 0.00 0.94 0.89 92 1018.7
20260901193015 13 238 0.0 1.6 0.00 0.94 0.89 92 1018.7
20260901192514 14 238 0.0 0.0 0.00 0.94 0.89 92 1018.6
20260901192020 14 238 0.0 0.0 0.00 0.94 0.89 91 1018.7
20260901191518 14 238 0.0 0.0 0.00 0.94 0.89 92 1018.7
20260901191017 14 238 0.0 0.0 0.00 0.94 0.89 91 1018.7
20260901190513 14 238 0.0 0.0 0.00 0.94 0.89 91 1018.6
20260901190017 14 238 0.0 0.0 0.00 0.94 0.89 91 1018.5
20260901185517 15 238 0.0 0.0 0.00 0.94 0.89 91 1018.6